DW1354 Weather Reports


Display with metric or nautical units.
time (UTC)temp
F
wind
direction
speed
MPH
gust
MPH
rain 1hr
in
rain 24hr
in
rain mn
in
humidity
%
barometer
mb
20200922102515 50 0.0 0.0 0.00 0.00 0.00 75 1024.5
20200922101530 50 0.0 0.0 0.00 0.00 0.00 74 1024.7
20200922100522 50 0.0 0.0 0.00 0.00 0.00 74 1024.8
20200922095515 50 0.0 0.0 0.00 0.00 0.00 72 1024.9
20200922094517 51 0.0 0.0 0.00 0.00 0.00 70 1024.9
20200922093515 51 0.0 0.0 0.00 0.00 0.00 70 1025.1
20200922092517 51 0.0 0.0 0.00 0.00 0.00 71 1025.1
20200922091522 51 0.0 0.0 0.00 0.00 0.00 68 1025.4
20200922090515 51 0.0 0.0 0.00 0.00 0.00 69 1025.3
20200922085520 51 0.0 0.0 0.00 0.00 0.00 69 1025.4
20200922084520 51 0.0 0.0 0.00 0.00 0.00 70 1025.4
20200922083518 50 0.0 0.0 0.00 0.00 0.00 70 1025.3
20200922082515 50 0.0 0.0 0.00 0.00 0.00 71 1025.4
20200922081521 50 0.0 0.0 0.00 0.00 0.00 72 1025.4
20200922080515 51 0.0 0.0 0.00 0.00 0.00 72 1025.5
20200922075515 51 0.0 0.0 0.00 0.00 0.00 71 1025.6
20200922074521 51 0.0 0.0 0.00 0.00 0.00 71 1025.7
20200922073520 51 0.0 0.0 0.00 0.00 0.00 71 1025.9
20200922072516 51 0.0 0.0 0.00 0.00 0.00 70 1026.0
20200922071524 51 0.0 0.0 0.00 0.00 0.00 70 1026.3
20200922070519 51 0.0 0.0 0.00 0.00 0.00 71 1026.4
20200922065521 51 0.0 0.0 0.00 0.00 0.00 71 1026.5
20200922064515 51 0.0 0.0 0.00 0.00 0.00 69 1026.4
20200922063520 51 0.0 0.0 0.00 0.00 0.00 66 1026.5
20200922062520 51 0.0 0.0 0.00 0.00 0.00 68 1026.6
20200922061518 51 0.0 0.0 0.00 0.00 0.00 69 1026.7
20200922060517 51 0.0 0.0 0.00 0.00 0.00 63 1026.7
20200922055520 51 0.0 0.0 0.00 0.00 0.00 68 1026.9
20200922054519 51 0.0 0.0 0.00 0.00 0.00 65 1027.2
20200922053515 51 0.0 0.0 0.00 0.00 0.00 67 1027.3
20200922052520 51 0.0 0.0 0.00 0.00 0.00 69 1027.3
20200922051515 51 0.0 0.0 0.00 0.00 0.00 67 1027.3
20200922050521 51 0.0 0.0 0.00 0.00 0.00 67 1027.4
20200922045521 51 0.0 0.0 0.00 0.00 0.00 67 1027.3
20200922044520 51 0.0 0.0 0.00 0.00 0.00 67 1027.7
20200922043515 51 0.0 0.0 0.00 0.00 0.00 65 1027.8
20200922042516 51 0.0 0.0 0.00 0.00 0.00 67 1027.8
20200922041515 51 0.0 0.0 0.00 0.00 0.00 67 1027.9
20200922040520 51 0.0 0.0 0.00 0.00 0.00 68 1028.0
20200922035515 51 0.0 0.0 0.00 0.00 0.00 68 1028.1
20200922034536 51 0.0 0.0 0.00 0.00 0.00 67 1028.3
20200922033520 52 0.0 0.0 0.00 0.00 0.00 68 1028.3
20200922032515 52 0.0 0.0 0.00 0.00 0.00 66 1028.2
20200922031520 52 0.0 0.0 0.00 0.00 0.00 67 1028.4
20200922030517 52 0.0 0.0 0.00 0.00 0.00 67 1028.4
20200922025515 52 0.0 0.0 0.00 0.00 0.00 66 1028.6
20200922024521 52 0.0 0.0 0.00 0.00 0.00 66 1028.6
20200922023515 52 0.0 0.0 0.00 0.00 0.00 66 1028.6
20200922022520 52 0.0 0.0 0.00 0.00 0.00 67 1028.7
20200922021515 52 0.0 0.0 0.00 0.00 0.00 67 1028.9
20200922020520 52 0.0 0.0 0.00 0.00 0.00 66 1028.9
20200922015516 52 0.0 0.0 0.00 0.00 0.00 63 1028.9
20200922014518 52 0.0 0.0 0.00 0.00 0.00 60 1029.0
20200922013515 52 0.0 0.0 0.00 0.00 0.00 64 1029.1
20200922012516 52 0.0 0.0 0.00 0.00 0.00 62 1029.2
20200922011516 52 0.0 0.0 0.00 0.00 0.00 63 1029.2
20200922010520 53 0.0 0.0 0.00 0.00 0.00 63 1029.3
20200922005518 53 0.0 0.0 0.00 0.00 0.00 62 1029.4
20200922004515 53 0.0 0.0 0.00 0.00 0.00 61 1029.4
20200922003526 53 0.0 0.0 0.00 0.00 0.00 62 1029.4
20200922002516 53 0.0 0.0 0.00 0.00 0.00 61 1029.4
20200922001520 53 0.0 0.0 0.00 0.00 0.00 64 1029.4
20200922000526 53 0.0 0.0 0.00 0.00 0.00 64 1029.4
20200921235516 53 0.0 0.0 0.00 0.00 0.00 65 1029.2
20200921234521 54 0.0 0.0 0.00 0.00 0.00 69 1029.3
20200921233522 54 0.0 0.0 0.00 0.00 0.00 68 1029.4
20200921232520 54 0.0 0.0 0.00 0.00 0.00 68 1029.5
20200921231520 54 0.0 0.0 0.00 0.00 0.00 70 1029.5
20200921230519 55 0.0 0.0 0.00 0.00 0.00 68 1029.5
20200921225521 55 0.0 0.0 0.00 0.00 0.00 69 1029.4
20200921224522 55 0.0 0.0 0.00 0.00 0.00 69 1029.4
20200921223518 56 0.0 0.0 0.00 0.00 0.00 69 1029.5
20200921222517 56 0.0 0.0 0.00 0.00 0.00 69 1029.6
20200921221522 57 0.0 0.0 0.00 0.00 0.00 67 1029.7
20200921220515 58 0.0 0.0 0.00 0.00 0.00 66 1029.8
20200921215523 59 0.0 0.0 0.00 0.00 0.00 67 1029.7
20200921214515 59 0.0 0.0 0.00 0.00 0.00 65 1029.9
20200921213523 60 0.0 0.0 0.00 0.00 0.00 64 1029.9
20200921212517 60 0.0 0.0 0.00 0.00 0.00 63 1030.0
20200921211522 61 0.0 0.0 0.00 0.00 0.00 61 1030.2
20200921210524 62 0.0 0.0 0.00 0.00 0.00 60 1030.3
20200921205519 62 0.0 0.0 0.00 0.00 0.00 55 1030.3
20200921204522 62 0.0 0.0 0.00 0.00 0.00 52 1030.4
20200921203523 62 0.0 0.0 0.00 0.00 0.00 52 1030.5
20200921202522 62 0.0 0.0 0.00 0.00 0.00 52 1030.6
20200921201523 63 0.0 0.0 0.00 0.00 0.00 52 1030.8
20200921200520 63 0.0 0.0 0.00 0.00 0.00 50 1030.9
20200921195519 62 0.0 0.0 0.00 0.00 0.00 50 1031.2
20200921194518 63 0.0 0.0 0.00 0.00 0.00 51 1031.4
20200921193522 63 0.0 0.0 0.00 0.00 0.00 50 1031.4
20200921192517 63 0.0 0.0 0.00 0.00 0.00 49 1031.4
20200921191522 64 0.0 0.0 0.00 0.00 0.00 49 1031.6
20200921190524 64 0.0 0.0 0.00 0.00 0.00 50 1031.8
20200921185522 64 0.0 0.0 0.00 0.00 0.00 52 1031.9
20200921184518 63 0.0 0.0 0.00 0.00 0.00 50 1032.1
20200921183521 63 0.0 0.0 0.00 0.00 0.00 49 1032.1
20200921182517 63 0.0 0.0 0.00 0.00 0.00 49 1032.3
20200921181534 63 0.0 0.0 0.00 0.00 0.00 51 1032.4
20200921180518 63 0.0 0.0 0.00 0.00 0.00 50 1032.6
20200921175520 63 0.0 0.0 0.00 0.00 0.00 51 1032.7
20200921174519 63 0.0 0.0 0.00 0.00 0.00 49 1033.0
20200921173521 63 0.0 0.0 0.00 0.00 0.00 48 1033.1
20200921172522 63 0.0 0.0 0.00 0.00 0.00 47 1033.2
20200921171524 63 0.0 0.0 0.00 0.00 0.00 50 1033.3
20200921170521 63 0.0 0.0 0.00 0.00 0.00 50 1033.4
20200921165517 62 0.0 0.0 0.00 0.00 0.00 47 1033.4
20200921164526 63 0.0 0.0 0.00 0.00 0.00 49 1033.6
20200921163517 63 0.0 0.0 0.00 0.00 0.00 52 1033.8
20200921162518 62 0.0 0.0 0.00 0.00 0.00 52 1034.1
20200921161533 62 0.0 0.0 0.00 0.00 0.00 52 1034.3
20200921160522 62 0.0 0.0 0.00 0.00 0.00 52 1034.4
20200921155522 62 0.0 0.0 0.00 0.00 0.00 51 1034.4
20200921154522 61 0.0 0.0 0.00 0.00 0.00 53 1034.5
20200921153522 60 0.0 0.0 0.00 0.00 0.00 52 1034.4
20200921152517 60 0.0 0.0 0.00 0.00 0.00 53 1034.6
20200921151518 60 0.0 0.0 0.00 0.00 0.00 54 1034.5
20200921150522 60 0.0 0.0 0.00 0.00 0.00 55 1034.5
20200921145527 59 0.0 0.0 0.00 0.00 0.00 56 1034.6
20200921144521 59 0.0 0.0 0.00 0.00 0.00 56 1034.7
20200921143518 58 0.0 0.0 0.00 0.00 0.00 58 1034.7
20200921142526 57 0.0 0.0 0.00 0.00 0.00 61 1034.7
20200921141521 56 0.0 0.0 0.00 0.00 0.00 61 1034.6
20200921140517 55 0.0 0.0 0.00 0.00 0.00 60 1034.6
20200921135522 55 0.0 0.0 0.00 0.00 0.00 63 1034.4
20200921134519 54 0.0 0.0 0.00 0.00 0.00 61 1034.3
20200921133519 54 0.0 0.0 0.00 0.00 0.00 59 1034.2
20200921132526 54 0.0 0.0 0.00 0.00 0.00 57 1034.2
20200921131531 54 0.0 0.0 0.00 0.00 0.00 58 1034.0
20200921130527 54 0.0 0.0 0.00 0.00 0.00 56 1033.9
20200921125519 53 0.0 0.0 0.00 0.00 0.00 57 1033.8
20200921124521 53 0.0 0.0 0.00 0.00 0.00 57 1033.7
20200921123523 53 0.0 0.0 0.00 0.00 0.00 58 1033.6
20200921122522 53 0.0 0.0 0.00 0.00 0.00 59 1033.6
20200921121529 52 0.0 0.0 0.00 0.00 0.00 59 1033.7
20200921120517 51 0.0 0.0 0.00 0.00 0.00 65 1033.6
20200921115526 49 0.0 0.0 0.00 0.00 0.00 70 1033.5
20200921114523 49 0.0 0.0 0.00 0.00 0.00 73 1033.5
20200921113516 48 0.0 0.0 0.00 0.00 0.00 74 1033.5
20200921112526 48 0.0 0.0 0.00 0.00 0.00 73 1033.5
20200921111529 48 0.0 0.0 0.00 0.00 0.00 75 1033.4
20200921110521 48 0.0 0.0 0.00 0.00 0.00 74 1033.2
20200921105519 48 0.0 0.0 0.00 0.00 0.00 74 1033.1
20200921104519 48 0.0 0.0 0.00 0.00 0.00 75 1033.1
20200921103517 48 0.0 0.0 0.00 0.00 0.00 76 1033.0